Desert Center, CA

4:01 PM PST on February 23, 2017 (GMT -0800)
Blythe

Weather History for KBLH - April, 2014

Change the Weather History Date:

Saturday, April 19, 2014

  Actual Average Record
Temperature  
Mean Temperature 77 °F -  
Max Temperature 89 °F 84 °F 106 °F (1980)
Min Temperature 66 °F 55 °F 45 °F (1995)
Cooling Degree Days 12    
Growing Degree Days 27 (Base 50)    
Moisture  
Dew Point 45 °F    
Average Humidity 32    
Maximum Humidity 49    
Minimum Humidity 20    
Precipitation  
Precipitation 0.00 in - - ()
Sea Level Pressure  
Sea Level Pressure 29.87 in    
Wind  
Wind Speed 5 mph (West)    
Max Wind Speed 9 mph    
Max Gust Speed -    
Visibility 10 miles    
Events      
Averages and records for this station are not official NWS values.
T = Trace of Precipitation, MM = Missing Value Source: NWS Daily Summary

Daily Weather History Graph

Daily Weather History Graph

Search for Another Location

Airport or City:

Trip Planner

Search our weather history database for the weather conditions in past years. The results will help you decide how hot, cold, wet, or windy it might be!

Date:

Astronomy

Apr. 19, 2014 Rise Set
Actual Time 6:03 AM PDT 7:12 PM PDT
Civil Twilight 5:37 AM PDT 7:38 PM PDT
Nautical Twilight 5:06 AM PDT 8:09 PM PDT
Astronomical Twilight 4:35 AM PDT 8:41 PM PDT
Moon 11:51 PM PDT (4/19) 9:32 AM PDT (4/19)
Length of Visible Light 14h 01m
Length of Day
13h 09m
Waning Gibbous, 77% of the Moon is Illuminated
Apr 19
Waning Gibbous
Apr 22
Last Quarter
Apr 28
New
May 6
First Quarter
May 14
Full

Hourly Weather History & Observations

Time (PDT) Temp. Dew Point Humidity Pressure Visibility Wind Dir Wind Speed Gust Speed Precip Events Conditions
12:52 AM 71.1 °F 48.9 °F 45% 29.86 in 10.0 mi NNE 4.6 mph - N/A   Overcast
2:52 AM 70.0 °F 46.9 °F 44% 29.84 in 10.0 mi NNW 6.9 mph - N/A   Mostly Cloudy
3:52 AM 71.1 °F 46.9 °F 42% 29.85 in 10.0 mi North 4.6 mph - N/A   Clear
4:52 AM 70.0 °F 46.9 °F 44% 29.84 in 10.0 mi North 4.6 mph - N/A   Clear
5:52 AM 66.9 °F 46.9 °F 49% 29.85 in 10.0 mi North 6.9 mph - N/A   Clear
6:52 AM 66.0 °F 46.0 °F 48% 29.87 in 10.0 mi NNW 4.6 mph - N/A   Clear
7:52 AM 70.0 °F 48.0 °F 46% 29.89 in 10.0 mi Calm Calm - N/A   Clear
8:52 AM 75.0 °F 48.0 °F 38% 29.90 in 10.0 mi Calm Calm - N/A   Clear
9:52 AM 78.1 °F 51.1 °F 39% 29.92 in 10.0 mi ESE 8.1 mph - N/A   Clear
10:52 AM 81.0 °F 48.0 °F 31% 29.93 in 10.0 mi Calm Calm - N/A   Clear
11:52 AM 82.0 °F 46.0 °F 28% 29.92 in 10.0 mi Calm Calm - N/A   Partly Cloudy
12:52 PM 84.0 °F 46.0 °F 26% 29.91 in 10.0 mi North - - N/A   Clear
2:52 PM 87.1 °F 42.1 °F 21% 29.86 in 10.0 mi West 5.8 mph - N/A   Clear
3:52 PM 88.0 °F 42.1 °F 20% 29.84 in 10.0 mi South 9.2 mph - N/A   Mostly Cloudy
4:52 PM 88.0 °F 42.1 °F 20% 29.83 in 10.0 mi WSW 6.9 mph - N/A   Partly Cloudy
5:52 PM 88.0 °F 43.0 °F 21% 29.83 in 10.0 mi South 8.1 mph - N/A   Clear
6:52 PM 86.0 °F 44.1 °F 23% 29.83 in 10.0 mi SSE 8.1 mph - N/A   Clear
7:52 PM 82.9 °F 44.1 °F 25% 29.85 in 10.0 mi South 5.8 mph - N/A   Clear
8:52 PM 82.9 °F 42.1 °F 24% 29.87 in 10.0 mi SW 9.2 mph - N/A   Clear
9:52 PM 80.1 °F 41.0 °F 25% 29.89 in 10.0 mi SW 4.6 mph - N/A   Clear
10:52 PM 79.0 °F 39.0 °F 24% 29.90 in 10.0 mi West 8.1 mph - N/A   Clear
11:52 PM 78.1 °F 39.9 °F 25% 29.91 in 10.0 mi SW 4.6 mph - N/A   Clear